[[{"header":{"parameterUnit":"m.s-1","parameterCategory":2,"la1":30.2991,"la2":30.254,"lo1":-89.0895,"lo2":-89.0444,"dy":0.0017,"dx":0.0017,"nx":28,"ny":28,"refTime":"2024-08-29T21:00:00:Z","depth":"0","parameterNumber":2,"parameterNumberName":"U-component_of_CURRENTS"},"data":[0,0,0,0,0,0,0,0,0,0,0,0,0,0,0,0,0,0,0,0,0,0,0,0,0,0,0,0,0,0,0,0,0,0,0,0,0,0,0,0,0,0,0,0,0,0,0,0,0,0,0,0,0,0,0,0,0,0,0.2346,0.2346,0,0.2367,0.2367,0.2367,0.2359,0.2358,0.2358,0.2358,0.2346,0.2346,0.2346,0,0,0,0,0,0,0,0,0,0,0,0,0,0.2293,0.2294,0.2346,0.2346,0.2346,0.2367,0.2367,0.2367,0.2359,0.2358,0.2358,0.2358,0.2346,0.2346,0.2346,0,0,0,0,0,0,0,0,0,0,0,0,0,0.2314,0.2294,0.2346,0.2346,0.2347,0.2367,0.2367,0.2367,0.2359,0.2358,0.2358,0.2358,0.2346,0.2346,0.2346,0.2355,0,0,0.2346,0.2346,0,0,0,0,0,0,0,0,0.2312,0.2315,0.2346,0.2346,0.2347,0.2361,0.2344,0.2362,0.2359,0.2352,0.2358,0.2357,0.235,0.2349,0.2352,0.2355,0.2354,0.2346,0.2346,0.2346,0.2346,0,0,0,0,0,0,0,0.2311,0.2314,0.2352,0.2346,0.2347,0.2344,0.2346,0.2348,0.2351,0.2353,0.2353,0.2358,0.2349,0.2352,0.2352,0.2354,0.2346,0.2346,0.2346,0.2346,0.2403,0.2405,0,0,0,0,0,0,0.2313,0.2313,0.2351,0.2353,0.233,0.2346,0.2348,0.2356,0.2352,0.2352,0.2359,0.2358,0.2352,0.2352,0.2351,0.239,0.2346,0.2346,0.2346,0.2402,0.2404,0.2405,0,0,0,0,0,0,0.2312,0.2317,0.2351,0.2335,0.2339,0.2347,0.2356,0.2356,0.2364,0.2357,0.2356,0.2366,0.2352,0.2351,0.2368,0.2388,0.2346,0.2346,0.24,0.2402,0.2404,0.245,0,0,0,0,0,0,0.231,0.2316,0.2322,0.2335,0.234,0.237,0.2356,0.2357,0.2369,0.2368,0.2363,0.2361,0.2352,0.2368,0.2368,0.2388,0.2346,0.2398,0.2401,0.2404,0.2446,0.2453,0.246,0,0,0,0,0,0.2309,0.2318,0.2322,0.2327,0.2348,0.2371,0.2373,0.2375,0.237,0.2379,0.2381,0.2362,0.2386,0.2369,0.2368,0.2389,0.2396,0.24,0.2403,0.2443,0.2452,0.2459,0,0,0,0,0,0,0.2296,0.2319,0.2323,0.2339,0.2358,0.237,0.2379,0.2381,0.2391,0.239,0.2379,0.2378,0.24,0.2393,0.2374,0.2417,0.2389,0.2393,0.242,0.2428,0.2435,0.2437,0.2346,0,0,0,0,0,0.2298,0.2313,0.2334,0.2348,0.2359,0.2371,0.238,0.2385,0.2395,0.2398,0.2396,0.2401,0.2414,0.2419,0.2424,0.2446,0.2454,0.2461,0.2468,0.2473,0.2477,0.2519,0.2529,0.2417,0.2417,0.2417,0,0,0.2295,0.2312,0.2318,0.2347,0.236,0.2382,0.2375,0.2395,0.2412,0.2396,0.2415,0.2421,0.2426,0.2451,0.2461,0.2447,0.2511,0.2478,0.2482,0.2483,0.2523,0.2534,0.2544,0.2419,0.2419,0.2418,0,0,0.2302,0.2316,0.2333,0.2352,0.2381,0.2392,0.2401,0.2421,0.2428,0.2451,0.245,0.2472,0.2481,0.2497,0.2504,0.2552,0.2544,0.2554,0.2589,0.2629,0.2638,0.2647,0.2676,0.2686,0.2558,0.2558,0.2558,0,0.2298,0.232,0.2341,0.2366,0.238,0.24,0.242,0.2438,0.246,0.2473,0.2462,0.2504,0.2505,0.2549,0.2568,0.2566,0.2584,0.2555,0.2637,0.2646,0.2653,0.2681,0.2692,0.2561,0.2561,0.256,0.256,0,0.2319,0.2338,0.2351,0.2389,0.2412,0.243,0.2462,0.2486,0.2495,0.2511,0.255,0.2563,0.2588,0.2598,0.2596,0.2657,0.2651,0.2639,0.2614,0.2667,0.2693,0.2704,0.2565,0.2564,0.2563,0.2562,0,0,0.2299,0.2353,0.2356,0.2375,0.2421,0.244,0.2483,0.2522,0.2551,0.2575,0.2612,0.2645,0.2655,0.2666,0.2674,0.271,0.2781,0.2702,0.2703,0.2726,0.2871,0.2875,0.2887,0.2786,0.2788,0.279,0.2868,0,0.2304,0.2346,0.2373,0.241,0.2432,0.2469,0.2507,0.255,0.258,0.2623,0.2654,0.2689,0.2681,0.27,0.2739,0.2772,0.2811,0.2761,0.282,0.2822,0.2816,0.29,0.2858,0.2925,0.2878,0.288,0.2881,0,0.2309,0.2338,0.237,0.2422,0.2435,0.2463,0.2526,0.2561,0.2634,0.266,0.2709,0.2733,0.2799,0.2778,0.2867,0.2837,0.2861,0.288,0.2883,0.2878,0.2847,0.2865,0.2946,0.2935,0.2897,0.2896,0.2895,0,0.2278,0.233,0.2352,0.2369,0.2436,0.246,0.2497,0.2569,0.2597,0.2686,0.2719,0.2796,0.2838,0.2886,0.2936,0.2908,0.3029,0.2991,0.3016,0.3016,0.2987,0.298,0.3059,0.3055,0.3055,0.3055,0.3055,0,0.2264,0.2281,0.2339,0.2351,0.238,0.2442,0.2479,0.2534,0.2609,0.2656,0.2731,0.2794,0.287,0.2943,0.297,0.3043,0.3061,0.3046,0.3049,0.3002,0.2997,0.2989,0.2967,0.3058,0.3057,0.3057,0.3056,0,0.222,0.2259,0.2283,0.2347,0.2362,0.2382,0.2444,0.248,0.2564,0.2633,0.2664,0.2803,0.2923,0.299,0.3089,0.3091,0.3094,0.3165,0.3104,0.3099,0.3092,0.3073,0.298,0.2888,0.3203,0.3204,0.3205,0,0.2198,0.2209,0.2255,0.2265,0.2287,0.2324,0.2353,0.2439,0.2482,0.2642,0.2678,0.283,0.2932,0.3089,0.3157,0.3227,0.3132,0.3203,0.314,0.3114,0.3096,0.2926,0.2841,0.3118,0.3118,0.3118,0.3118,0,0.2153,0.2169,0.2189,0.2209,0.2231,0.2248,0.2301,0.2321,0.2445,0.2527,0.2665,0.2765,0.2968,0.307,0.3186,0.321,0.309,0.3202,0.3198,0.3068,0.2865,0.277,0.3034,0.3117,0.3117,0.3117,0.3117,0.3117,0.2113,0.2113,0.2142,0.2148,0.2164,0.2169,0.2163,0.2237,0.23,0.241,0.2582,0.2722,0.2969,0.3148,0.3156,0.3205,0.3092,0.3152,0.3141,0.2977,0.2857,0.3121,0.3192,0.3193,0.3193,0.3193,0.3194,0,0.2072,0.208,0.2083,0.2085,0.2063,0.2098,0.2125,0.2114,0.2158,0.2338,0.2452,0.2736,0.2902,0.3075,0.3261,0.3192,0.2982,0.3112,0.2884,0.2808,0.3097,0.3067,0.3088,0.3088,0.3088,0.3088,0.3088,0.3088,0.2059,0.2048,0.2042,0.1984,0.1975,0.1928,0.192,0.1923,0.2024,0.2174,0.2351,0.2521,0.2908,0.3244,0.3317,0.322,0.298,0.2845,0.2781,0.3055,0.3057,0.3058,0.3027,0.3039,0.3039,0.2379,0.2375,0.2371]},{"header":{"parameterUnit":"m.s-1","parameterCategory":2,"la1":30.2991,"la2":30.254,"lo1":-89.0895,"lo2":-89.0444,"dy":0.0017,"dx":0.0017,"nx":28,"ny":28,"refTime":"2024-08-29T21:00:00:Z","depth":"0","parameterNumber":3,"parameterNumberName":"V-component_of_CURRENTS"},"data":[0,0,0,0,0,0,0,0,0,0,0,0,0,0,0,0,0,0,0,0,0,0,0,0,0,0,0,0,0,0,0,0,0,0,0,0,0,0,0,0,0,0,0,0,0,0,0,0,0,0,0,0,0,0,0,0,0,0,-0.0008,-0.0009,0,-0.0086,-0.0087,-0.0087,-0.0135,-0.0135,-0.0135,-0.0135,-0.0234,-0.0236,-0.0239,0,0,0,0,0,0,0,0,0,0,0,0,0,0.0055,0.0054,-0.0008,-0.0009,-0.0009,-0.0085,-0.0087,-0.0088,-0.0135,-0.0135,-0.0135,-0.0135,-0.0233,-0.0236,-0.0239,0,0,0,0,0,0,0,0,0,0,0,0,0,0.0007,0.0054,-0.0008,-0.0041,-0.0045,-0.0085,-0.0087,-0.0088,-0.0135,-0.0135,-0.0135,-0.0136,-0.0232,-0.0235,-0.0239,-0.0258,0,0,-0.025,-0.0252,0,0,0,0,0,0,0,0,0.0009,0.0004,-0.0036,-0.0039,-0.0043,-0.01,-0.0101,-0.0145,-0.0135,-0.0102,-0.0135,-0.0136,-0.019,-0.0197,-0.0212,-0.0262,-0.0266,-0.0251,-0.0253,-0.0255,-0.0256,0,0,0,0,0,0,0,0.0013,0.0007,-0.004,-0.0036,-0.0041,-0.0068,-0.0075,-0.011,-0.0145,-0.0105,-0.0108,-0.0115,-0.0193,-0.0209,-0.0215,-0.0268,-0.0251,-0.0254,-0.0256,-0.0258,-0.034,-0.034,0,0,0,0,0,0,0.0027,0.001,-0.0037,-0.0042,-0.0016,-0.0069,-0.0077,-0.0082,-0.0144,-0.0153,-0.0115,-0.0117,-0.0202,-0.0211,-0.0219,-0.0234,-0.0255,-0.0258,-0.026,-0.034,-0.034,-0.034,0,0,0,0,0,0,0.0029,0.0024,-0.0034,-0.0017,-0.0026,-0.0069,-0.0076,-0.0084,-0.0098,-0.0151,-0.0161,-0.012,-0.0203,-0.0214,-0.0245,-0.0238,-0.026,-0.0263,-0.034,-0.034,-0.034,-0.027,0,0,0,0,0,0,0.0031,0.0025,0.0027,-0.0016,-0.0026,-0.0049,-0.0076,-0.0085,-0.0101,-0.0105,-0.0159,-0.0169,-0.0204,-0.0239,-0.0249,-0.0244,-0.0266,-0.034,-0.034,-0.034,-0.0272,-0.0268,-0.0263,0,0,0,0,0,0.0033,0.0039,0.0027,0.0021,-0.0023,-0.0049,-0.0056,-0.0089,-0.0101,-0.0103,-0.014,-0.0167,-0.0245,-0.0242,-0.0253,-0.0249,-0.034,-0.034,-0.034,-0.0274,-0.0268,-0.0264,0,0,0,0,0,0,0.0069,0.0033,0.002,0.0015,-0.0011,-0.0056,-0.0061,-0.0083,-0.0114,-0.0117,-0.0167,-0.0179,-0.0207,-0.0238,-0.0232,-0.0273,-0.0297,-0.0299,-0.0243,-0.0238,-0.0234,-0.0209,-0.0269,0,0,0,0,0,0.0078,0.0073,0.0035,0.0033,0.0023,-0.0017,-0.0031,-0.0053,-0.0087,-0.0101,-0.0138,-0.0179,-0.0216,-0.0233,-0.0272,-0.0291,-0.0315,-0.0296,-0.0292,-0.0288,-0.0276,-0.031,-0.0307,-0.0339,-0.0339,-0.0339,0,0,0.0091,0.0072,0.0068,0.004,0.0018,0.001,-0.0026,-0.0041,-0.0047,-0.0106,-0.0123,-0.0167,-0.022,-0.0244,-0.0258,-0.0266,-0.0291,-0.0288,-0.0283,-0.0274,-0.031,-0.0306,-0.0304,-0.0339,-0.0339,-0.0339,0,0,0.0119,0.0099,0.0105,0.0087,0.006,0.0035,0.0035,-0.0005,-0.0022,-0.0046,-0.0091,-0.0126,-0.018,-0.0214,-0.0239,-0.0232,-0.027,-0.0248,-0.02,-0.0233,-0.0231,-0.0228,-0.0248,-0.0248,-0.024,-0.024,-0.024,0,0.0138,0.0138,0.0103,0.0105,0.0099,0.0052,0.0061,0.0035,-0.001,-0.0018,-0.004,-0.0118,-0.0164,-0.0192,-0.0192,-0.0221,-0.0241,-0.0214,-0.0226,-0.0224,-0.0223,-0.0244,-0.0245,-0.0237,-0.0237,-0.0237,-0.0238,0,0.0168,0.0168,0.0171,0.0159,0.0149,0.0147,0.0112,0.0099,0.0073,0.0044,0.0011,-0.0053,-0.0095,-0.0119,-0.0155,-0.0171,-0.0188,-0.0218,-0.0234,-0.0215,-0.0239,-0.0241,-0.0232,-0.0233,-0.0234,-0.0235,0,0,0.0211,0.0197,0.0198,0.0208,0.0179,0.0178,0.0171,0.0153,0.0157,0.0104,0.0105,0.0031,-0.0003,-0.0033,-0.0085,-0.0114,-0.013,-0.0154,-0.0158,-0.0162,-0.0191,-0.0201,-0.0205,-0.0162,-0.0163,-0.0163,-0.0207,0,0.0247,0.0268,0.0249,0.0275,0.0285,0.025,0.0252,0.0229,0.02,0.0186,0.0119,0.0092,0.0029,0.0013,-0.0027,-0.0106,-0.0134,-0.0114,-0.0218,-0.022,-0.0222,-0.0207,-0.0179,-0.0216,-0.0209,-0.021,-0.021,0,0.0284,0.0295,0.0327,0.0341,0.0343,0.035,0.0353,0.035,0.0311,0.0286,0.0244,0.0191,0.0139,0.0082,-0.0028,-0.0011,-0.009,-0.0152,-0.0156,-0.0189,-0.0234,-0.0237,-0.0221,-0.036,-0.0214,-0.0214,-0.0214,0,0.0337,0.0353,0.0385,0.0387,0.039,0.0402,0.0404,0.038,0.0393,0.0352,0.0353,0.0272,0.0246,0.0134,0.0007,-0.0011,-0.0109,-0.0156,-0.0237,-0.0239,-0.0246,-0.0248,-0.0367,-0.023,-0.023,-0.023,-0.023,0,0.0382,0.0409,0.0412,0.043,0.0475,0.046,0.0498,0.0482,0.0478,0.0512,0.0413,0.0423,0.0258,0.0181,0.0046,-0.009,-0.0083,-0.0218,-0.0249,-0.0221,-0.022,-0.0368,-0.0481,-0.0232,-0.0231,-0.0231,-0.0231,0,0.0431,0.0431,0.0473,0.0489,0.05,0.0532,0.0564,0.0595,0.0574,0.0617,0.0613,0.0542,0.0445,0.0277,0.0109,-0.0024,-0.0265,-0.022,-0.0167,-0.0191,-0.0404,-0.0514,-0.0709,-0.0807,-0.0318,-0.0318,-0.0318,0,0.0458,0.0484,0.052,0.0551,0.056,0.0601,0.0636,0.0638,0.0678,0.0702,0.0736,0.0664,0.0633,0.0378,0.0133,-0.0097,-0.0274,-0.0237,-0.0276,-0.0402,-0.0549,-0.0643,-0.0718,-0.0258,-0.0258,-0.0258,-0.0258,0,0.0512,0.0522,0.0554,0.0614,0.066,0.0714,0.0764,0.0812,0.084,0.0884,0.0942,0.093,0.07,0.0491,0.0166,-0.0009,-0.0364,-0.0242,-0.0392,-0.0525,-0.0617,-0.0728,-0.0238,-0.0257,-0.0257,-0.0257,-0.0257,-0.0258,0.0554,0.0585,0.0626,0.0687,0.0742,0.082,0.0878,0.0951,0.1042,0.1134,0.1116,0.1153,0.0839,0.0405,0.0121,-0.0331,-0.0381,-0.0452,-0.0577,-0.0659,-0.0757,-0.0256,-0.0303,-0.0303,-0.0303,-0.0303,-0.0304,0,0.0612,0.0642,0.0698,0.0769,0.0837,0.0856,0.0964,0.1039,0.1167,0.1281,0.1341,0.128,0.0839,0.0398,-0.0225,-0.0575,-0.0744,-0.0769,-0.0894,-0.0958,-0.051,-0.0507,-0.0576,-0.0576,-0.0576,-0.0576,-0.0576,-0.0575,0.0645,0.0705,0.0727,0.0838,0.089,0.0996,0.1065,0.1188,0.13,0.1474,0.1572,0.1609,0.137,0.0133,-0.0673,-0.0892,-0.1201,-0.1251,-0.142,-0.1097,-0.1076,-0.1056,-0.1077,-0.1264,-0.1265,-0.1797,-0.1802,-0.1806]}],[{"header":{"parameterUnit":"m.s-1","parameterCategory":2,"la1":30.2991,"la2":30.254,"lo1":-89.0895,"lo2":-89.0444,"dy":0.0017,"dx":0.0017,"nx":28,"ny":28,"refTime":"2024-08-29T21:00:00:Z","depth":"2","parameterNumber":2,"parameterNumberName":"U-component_of_CURRENTS"},"data":[0,0,0,0,0,0,0,0,0,0,0,0,0,0,0,0,0,0,0,0,0,0,0,0,0,0,0,0,0,0,0,0,0,0,0,0,0,0,0,0,0,0,0,0,0,0,0,0,0,0,0,0,0,0,0,0,0,0,0.2343,0.2344,0,0.2365,0.2365,0.2365,0.2359,0.2359,0.2359,0.2358,0.235,0.235,0.235,0,0,0,0,0,0,0,0,0,0,0,0,0,0.2292,0.2292,0.2343,0.2344,0.2344,0.2365,0.2365,0.2365,0.2359,0.2359,0.2359,0.2358,0.235,0.235,0.235,0,0,0,0,0,0,0,0,0,0,0,0,0,0.2312,0.2293,0.2343,0.2345,0.2346,0.2365,0.2365,0.2365,0.2359,0.2359,0.2358,0.2358,0.235,0.235,0.235,0.2358,0,0,0.235,0.235,0,0,0,0,0,0,0,0,0.2311,0.2314,0.2344,0.2345,0.2346,0.2361,0.2344,0.2362,0.2359,0.2352,0.2358,0.2358,0.2352,0.2352,0.2355,0.2358,0.2357,0.235,0.235,0.235,0.235,0,0,0,0,0,0,0,0.2309,0.2313,0.235,0.2345,0.2346,0.2343,0.2346,0.2347,0.2352,0.2353,0.2353,0.2358,0.2352,0.2355,0.2354,0.2357,0.235,0.235,0.235,0.235,0.2408,0.241,0,0,0,0,0,0,0.2311,0.2311,0.2349,0.2351,0.2329,0.2345,0.2347,0.2355,0.2353,0.2353,0.2359,0.2358,0.2355,0.2354,0.2354,0.2394,0.235,0.235,0.235,0.2407,0.2409,0.241,0,0,0,0,0,0,0.231,0.2315,0.2348,0.2333,0.2337,0.2346,0.2355,0.2355,0.2364,0.2358,0.2357,0.2367,0.2354,0.2354,0.2371,0.2392,0.235,0.235,0.2405,0.2407,0.241,0.2454,0,0,0,0,0,0,0.2309,0.2314,0.2321,0.2333,0.2338,0.2367,0.2355,0.2356,0.2368,0.2368,0.2365,0.2363,0.2354,0.2371,0.2371,0.2392,0.235,0.2403,0.2406,0.2409,0.2451,0.2458,0.2464,0,0,0,0,0,0.2307,0.2317,0.2321,0.2325,0.2347,0.2368,0.2371,0.2374,0.2369,0.2378,0.2382,0.2364,0.239,0.2373,0.2372,0.2393,0.2402,0.2405,0.2409,0.2448,0.2457,0.2464,0,0,0,0,0,0,0.2295,0.2318,0.2322,0.2338,0.2356,0.2368,0.2377,0.238,0.239,0.239,0.238,0.238,0.2403,0.2396,0.2378,0.2421,0.2394,0.2398,0.2424,0.2432,0.2438,0.2441,0.235,0,0,0,0,0,0.2297,0.2312,0.2333,0.2346,0.2357,0.2369,0.2378,0.2384,0.2394,0.2398,0.2397,0.2403,0.2417,0.2422,0.2428,0.245,0.2457,0.2466,0.2472,0.2478,0.2481,0.2522,0.2533,0.2422,0.2422,0.2422,0,0,0.2295,0.2311,0.2318,0.2345,0.2358,0.238,0.2373,0.2394,0.2411,0.2396,0.2417,0.2422,0.2428,0.2454,0.2464,0.2451,0.2515,0.2482,0.2486,0.2487,0.2527,0.2538,0.2547,0.2424,0.2424,0.2423,0,0,0.2302,0.2316,0.2332,0.2351,0.2379,0.2391,0.24,0.2419,0.2428,0.2451,0.245,0.2473,0.2483,0.2499,0.2507,0.2554,0.2546,0.2557,0.2591,0.2632,0.2641,0.2649,0.2675,0.2685,0.2562,0.2562,0.2562,0,0.2298,0.232,0.234,0.2365,0.2379,0.2398,0.2418,0.2437,0.2458,0.2472,0.2463,0.2505,0.2507,0.2551,0.257,0.2568,0.2586,0.2558,0.264,0.2648,0.2655,0.268,0.2691,0.2564,0.2564,0.2564,0.2563,0,0.2319,0.2338,0.2351,0.2387,0.2409,0.2428,0.2459,0.2483,0.2494,0.251,0.255,0.2563,0.2589,0.2599,0.2597,0.2658,0.2652,0.2641,0.2617,0.2669,0.2692,0.2702,0.2568,0.2567,0.2566,0.2566,0,0,0.23,0.2352,0.2356,0.2374,0.2419,0.2438,0.248,0.2519,0.2548,0.2573,0.261,0.2644,0.2654,0.2665,0.2674,0.271,0.278,0.2703,0.2704,0.2724,0.2867,0.2865,0.2875,0.2786,0.2788,0.279,0.2862,0,0.2304,0.2345,0.2372,0.2408,0.2429,0.2466,0.2504,0.2546,0.2576,0.262,0.2651,0.2687,0.2679,0.2699,0.2738,0.277,0.2809,0.2761,0.2817,0.2819,0.2807,0.2888,0.2648,0.2693,0.2872,0.2873,0.2875,0,0.2309,0.2337,0.2369,0.242,0.2433,0.2461,0.2522,0.2557,0.263,0.2657,0.2706,0.273,0.2795,0.2775,0.2862,0.2834,0.2857,0.2876,0.2879,0.2868,0.2837,0.267,0.2704,0.2892,0.289,0.2889,0.2888,0,0.2278,0.233,0.2351,0.2368,0.2434,0.2458,0.2495,0.2566,0.2594,0.2683,0.2716,0.2791,0.2833,0.2881,0.2929,0.2903,0.3019,0.2983,0.3001,0.3,0.2802,0.2781,0.3046,0.3046,0.3046,0.3046,0.3046,0,0.2264,0.2281,0.2339,0.2351,0.238,0.244,0.2478,0.2532,0.2607,0.2654,0.2728,0.2789,0.2865,0.2936,0.2962,0.3028,0.305,0.3029,0.3032,0.2813,0.2793,0.2963,0.2952,0.3048,0.3048,0.3047,0.3047,0,0.2221,0.226,0.2284,0.2347,0.2362,0.2383,0.2445,0.2481,0.2565,0.2633,0.2665,0.2798,0.2913,0.2978,0.3074,0.3073,0.313,0.3141,0.2882,0.2854,0.3069,0.306,0.3167,0.3168,0.3168,0.3169,0.3169,0,0.22,0.221,0.2257,0.2267,0.229,0.2328,0.2357,0.2442,0.2484,0.2641,0.2675,0.2822,0.2915,0.3062,0.3095,0.3151,0.3181,0.2958,0.2871,0.3096,0.3088,0.3077,0.3068,0.2616,0.2612,0.2608,0.2606,0,0.2156,0.2172,0.2192,0.2213,0.2236,0.2252,0.2306,0.2326,0.2447,0.2525,0.2656,0.2747,0.2911,0.2895,0.2989,0.298,0.2932,0.2896,0.32,0.2641,0.2588,0.2576,0.2582,0.2576,0.2579,0.2581,0.2583,0.2584,0.2117,0.2117,0.2146,0.2153,0.2171,0.2175,0.217,0.2236,0.2293,0.2377,0.2544,0.2609,0.2693,0.2734,0.2687,0.2655,0.2855,0.2717,0.2722,0.2731,0.2674,0.2627,0.261,0.2613,0.2615,0.2618,0.262,0,0.2073,0.2085,0.2088,0.2092,0.2068,0.2107,0.2132,0.2111,0.214,0.2256,0.234,0.2235,0.2259,0.2331,0.2256,0.2298,0.2206,0.2194,0.204,0.2075,0.2105,0.2008,0.1771,0.1768,0.1765,0.1762,0,0,0.206,0.2048,0.2042,0.1984,0.1981,0.1933,0.1926,0.1908,0.1956,0.1953,0.1975,0.215,0.2288,0.1995,0.1984,0.1866,0.1938,0.1789,0.248,0.2336,0.2361,0.2435,0.2332,0,0,0,0,0]},{"header":{"parameterUnit":"m.s-1","parameterCategory":2,"la1":30.2991,"la2":30.254,"lo1":-89.0895,"lo2":-89.0444,"dy":0.0017,"dx":0.0017,"nx":28,"ny":28,"refTime":"2024-08-29T21:00:00:Z","depth":"2","parameterNumber":3,"parameterNumberName":"V-component_of_CURRENTS"},"data":[0,0,0,0,0,0,0,0,0,0,0,0,0,0,0,0,0,0,0,0,0,0,0,0,0,0,0,0,0,0,0,0,0,0,0,0,0,0,0,0,0,0,0,0,0,0,0,0,0,0,0,0,0,0,0,0,0,0,-0.006,-0.0061,0,-0.0137,-0.0138,-0.0139,-0.0185,-0.0185,-0.0185,-0.0185,-0.0282,-0.0285,-0.0287,0,0,0,0,0,0,0,0,0,0,0,0,0,0.0001,0.0001,-0.006,-0.0061,-0.0062,-0.0137,-0.0138,-0.0139,-0.0185,-0.0185,-0.0185,-0.0185,-0.0281,-0.0284,-0.0287,0,0,0,0,0,0,0,0,0,0,0,0,0,-0.0046,0.0,-0.006,-0.0093,-0.0097,-0.0136,-0.0138,-0.0139,-0.0185,-0.0185,-0.0185,-0.0186,-0.028,-0.0284,-0.0288,-0.0306,0,0,-0.0299,-0.03,0,0,0,0,0,0,0,0,-0.0043,-0.0048,-0.0088,-0.0091,-0.0095,-0.0151,-0.0152,-0.0196,-0.0185,-0.0153,-0.0185,-0.0186,-0.0239,-0.0246,-0.0261,-0.0311,-0.0315,-0.0299,-0.0301,-0.0303,-0.0304,0,0,0,0,0,0,0,-0.004,-0.0046,-0.0092,-0.0088,-0.0093,-0.012,-0.0126,-0.016,-0.0195,-0.0155,-0.0159,-0.0166,-0.0242,-0.0258,-0.0264,-0.0316,-0.0299,-0.0302,-0.0305,-0.0306,-0.0386,-0.0386,0,0,0,0,0,0,-0.0026,-0.0042,-0.0089,-0.0094,-0.0068,-0.012,-0.0128,-0.0133,-0.0194,-0.0203,-0.0165,-0.0167,-0.0251,-0.026,-0.0268,-0.0281,-0.0303,-0.0306,-0.0308,-0.0386,-0.0386,-0.0386,0,0,0,0,0,0,-0.0024,-0.0029,-0.0086,-0.0069,-0.0078,-0.0121,-0.0127,-0.0135,-0.0148,-0.0201,-0.0211,-0.017,-0.0252,-0.0262,-0.0293,-0.0286,-0.0308,-0.0311,-0.0386,-0.0386,-0.0386,-0.0316,0,0,0,0,0,0,-0.0022,-0.0028,-0.0026,-0.0068,-0.0078,-0.0101,-0.0127,-0.0136,-0.0152,-0.0155,-0.0208,-0.0218,-0.0253,-0.0287,-0.0297,-0.0291,-0.0314,-0.0386,-0.0386,-0.0386,-0.0318,-0.0314,-0.0309,0,0,0,0,0,-0.002,-0.0014,-0.0026,-0.0031,-0.0075,-0.01,-0.0108,-0.014,-0.0151,-0.0153,-0.019,-0.0216,-0.0293,-0.029,-0.0301,-0.0297,-0.0386,-0.0386,-0.0386,-0.0321,-0.0315,-0.031,0,0,0,0,0,0,0.0015,-0.002,-0.0033,-0.0038,-0.0063,-0.0107,-0.0112,-0.0133,-0.0164,-0.0167,-0.0216,-0.0228,-0.0255,-0.0285,-0.0281,-0.032,-0.0344,-0.0346,-0.029,-0.0285,-0.0281,-0.0256,-0.0317,0,0,0,0,0,0.0025,0.002,-0.0018,-0.002,-0.003,-0.0069,-0.0082,-0.0103,-0.0137,-0.0151,-0.0187,-0.0227,-0.0264,-0.028,-0.0319,-0.0337,-0.0362,-0.0342,-0.0337,-0.0333,-0.0322,-0.0356,-0.0353,-0.0386,-0.0386,-0.0386,0,0,0.0038,0.0019,0.0016,-0.0012,-0.0034,-0.0041,-0.0077,-0.0092,-0.0097,-0.0156,-0.0172,-0.0215,-0.0267,-0.0291,-0.0305,-0.0313,-0.0337,-0.0333,-0.0329,-0.0319,-0.0355,-0.0352,-0.0349,-0.0385,-0.0385,-0.0385,0,0,0.0065,0.0046,0.0052,0.0034,0.0008,-0.0017,-0.0016,-0.0056,-0.0072,-0.0095,-0.014,-0.0173,-0.0226,-0.026,-0.0284,-0.0277,-0.0315,-0.0292,-0.0245,-0.0278,-0.0275,-0.0273,-0.0294,-0.0294,-0.0285,-0.0285,-0.0285,0,0.0084,0.0084,0.005,0.0052,0.0047,0.0,0.0009,-0.0016,-0.006,-0.0068,-0.0089,-0.0165,-0.021,-0.0238,-0.0237,-0.0265,-0.0287,-0.0259,-0.027,-0.0269,-0.0268,-0.029,-0.0291,-0.0281,-0.0282,-0.0282,-0.0282,0,0.0114,0.0114,0.0118,0.0106,0.0096,0.0095,0.006,0.0048,0.0023,-0.0005,-0.0038,-0.01,-0.0141,-0.0165,-0.0199,-0.0215,-0.0233,-0.0263,-0.0279,-0.026,-0.0285,-0.0287,-0.0276,-0.0278,-0.0279,-0.028,0,0,0.0156,0.0143,0.0144,0.0154,0.0126,0.0125,0.0118,0.0101,0.0105,0.0054,0.0055,-0.0016,-0.005,-0.0079,-0.013,-0.0159,-0.0175,-0.0199,-0.0202,-0.0209,-0.0237,-0.0248,-0.0252,-0.0207,-0.0207,-0.0207,-0.0254,0,0.0192,0.0213,0.0194,0.022,0.023,0.0196,0.0198,0.0176,0.0148,0.0134,0.0069,0.0043,-0.0018,-0.0033,-0.0073,-0.0151,-0.0179,-0.0158,-0.0264,-0.0266,-0.0269,-0.0254,-0.0245,-0.0286,-0.0257,-0.0258,-0.0258,0,0.0229,0.0239,0.027,0.0284,0.0287,0.0294,0.0297,0.0294,0.0256,0.0232,0.0192,0.014,0.0089,0.0034,-0.0075,-0.0059,-0.0137,-0.0199,-0.0203,-0.0236,-0.0281,-0.0304,-0.0293,-0.0263,-0.0262,-0.0262,-0.0262,0,0.028,0.0296,0.0328,0.033,0.0333,0.0346,0.0348,0.0325,0.0337,0.0297,0.0298,0.0219,0.0193,0.0083,-0.0043,-0.0059,-0.016,-0.0204,-0.0286,-0.0288,-0.0312,-0.0315,-0.0278,-0.0278,-0.0278,-0.0278,-0.0278,0,0.0325,0.0351,0.0355,0.0372,0.0417,0.0402,0.044,0.0425,0.0421,0.0453,0.0357,0.0365,0.0204,0.0127,-0.0006,-0.0142,-0.0134,-0.0268,-0.0299,-0.0287,-0.0287,-0.0296,-0.0298,-0.028,-0.0279,-0.0279,-0.0279,0,0.0372,0.0373,0.0413,0.043,0.0441,0.0473,0.0505,0.0534,0.0515,0.0555,0.0552,0.048,0.0382,0.0218,0.0051,-0.0079,-0.0221,-0.0274,-0.024,-0.0266,-0.0337,-0.0334,-0.0371,-0.0371,-0.0372,-0.0372,-0.0373,0,0.0399,0.0424,0.046,0.0491,0.05,0.0541,0.0575,0.0577,0.0615,0.0637,0.0668,0.0595,0.0558,0.0304,0.006,-0.0168,-0.0204,-0.0313,-0.0352,-0.0319,-0.0346,-0.0342,-0.0339,-0.0358,-0.0358,-0.0358,-0.0358,0,0.045,0.0461,0.0492,0.0552,0.0596,0.0649,0.0698,0.0744,0.0771,0.0809,0.086,0.0842,0.0609,0.0382,0.0061,-0.0102,-0.0279,-0.0325,-0.0301,-0.0332,-0.0309,-0.0335,-0.0332,-0.036,-0.036,-0.036,-0.036,-0.036,0.0491,0.052,0.0561,0.0621,0.0676,0.0751,0.0806,0.0865,0.0947,0.1001,0.0995,0.0959,0.0711,0.0296,0.0022,-0.0283,-0.0274,-0.0392,-0.0391,-0.0389,-0.0375,-0.0355,-0.041,-0.0411,-0.0411,-0.0411,-0.0411,0,0.0538,0.0574,0.0629,0.0698,0.0759,0.0786,0.0889,0.0928,0.103,0.108,0.1108,0.0867,0.063,0.0339,-0.0109,-0.0365,-0.0395,-0.0452,-0.0432,-0.0428,-0.0426,-0.0413,-0.046,-0.046,-0.0461,-0.0462,0,0,0.0567,0.0622,0.0644,0.0748,0.0806,0.089,0.0956,0.1009,0.1052,0.1072,0.1062,0.1036,0.0714,0.0388,0.0038,-0.0214,-0.0269,-0.0271,-0.0207,-0.0141,-0.0135,-0.0369,-0.0343,0,0,0,0,0]}],[{"header":{"parameterUnit":"m.s-1","parameterCategory":2,"la1":30.2991,"la2":30.254,"lo1":-89.0895,"lo2":-89.0444,"dy":0.0017,"dx":0.0017,"nx":28,"ny":28,"refTime":"2024-08-29T21:00:00:Z","depth":"4","parameterNumber":2,"parameterNumberName":"U-component_of_CURRENTS"},"data":[0,0,0,0,0,0,0,0,0,0,0,0,0,0,0,0,0,0,0,0,0,0,0,0,0,0,0,0,0,0,0,0,0,0,0,0,0,0,0,0,0,0,0,0,0,0,0,0,0,0,0,0,0,0,0,0,0,0,0.1495,0.1496,0,0.1555,0.1556,0.1557,0.1606,0.1607,0.1608,0.1608,0.168,0.1681,0.1683,0,0,0,0,0,0,0,0,0,0,0,0,0,0.1413,0.1415,0.1495,0.1496,0.1497,0.1555,0.1556,0.1557,0.1606,0.1607,0.1608,0.1609,0.168,0.1681,0.1683,0,0,0,0,0,0,0,0,0,0,0,0,0,0.1457,0.1415,0.1495,0.153,0.1533,0.1555,0.1556,0.1557,0.1606,0.1607,0.1608,0.1609,0.1679,0.1681,0.1683,0.1674,0,0,0.1689,0.169,0,0,0,0,0,0,0,0,0.1455,0.146,0.1524,0.1527,0.1532,0.1576,0.1554,0.1597,0.1606,0.1577,0.1608,0.1609,0.1647,0.1651,0.1658,0.1678,0.1681,0.1689,0.169,0.1691,0.1691,0,0,0,0,0,0,0,0.1452,0.1458,0.1517,0.1524,0.1529,0.154,0.1547,0.1562,0.1604,0.1579,0.1583,0.1593,0.1649,0.1656,0.166,0.1682,0.1689,0.1691,0.1692,0.1692,0.1805,0.1807,0,0,0,0,0,0,0.1447,0.1455,0.1515,0.1519,0.1497,0.154,0.1548,0.1559,0.1604,0.1612,0.1592,0.1595,0.1652,0.1658,0.1663,0.175,0.1691,0.1693,0.1694,0.1804,0.1806,0.1808,0,0,0,0,0,0,0.1445,0.1452,0.1513,0.1489,0.1498,0.1541,0.1553,0.156,0.1601,0.1613,0.1622,0.1629,0.1653,0.166,0.1713,0.175,0.1694,0.1695,0.1801,0.1804,0.1807,0.1865,0,0,0,0,0,0,0.1442,0.1451,0.1473,0.1489,0.1499,0.1548,0.1552,0.156,0.1604,0.1609,0.1648,0.1653,0.1654,0.171,0.1715,0.1752,0.1697,0.1799,0.1803,0.1806,0.1861,0.1869,0.1877,0,0,0,0,0,0.1439,0.1459,0.1473,0.1482,0.1523,0.1549,0.1556,0.1588,0.1605,0.1628,0.1661,0.1654,0.1736,0.1713,0.1718,0.1756,0.1797,0.1802,0.1806,0.1857,0.1868,0.1876,0,0,0,0,0,0,0.1437,0.1466,0.1482,0.1512,0.154,0.1559,0.1588,0.1606,0.1649,0.1666,0.1676,0.1684,0.1743,0.1744,0.1719,0.18,0.1766,0.1771,0.1803,0.1813,0.1821,0.182,0.1698,0,0,0,0,0,0.1445,0.1472,0.1496,0.1526,0.1542,0.1571,0.1593,0.1615,0.1646,0.1668,0.1695,0.1728,0.1757,0.1782,0.1804,0.1848,0.185,0.1877,0.1885,0.1892,0.1896,0.1932,0.1943,0.1822,0.1822,0.1821,0,0,0.1452,0.1474,0.149,0.1528,0.1555,0.1583,0.1588,0.1631,0.1664,0.1668,0.1734,0.1757,0.1775,0.1827,0.1854,0.1838,0.1931,0.1897,0.1903,0.1903,0.1937,0.1949,0.1959,0.1824,0.1824,0.1823,0,0,0.1468,0.1502,0.1526,0.1553,0.1599,0.1615,0.1635,0.1675,0.1708,0.1763,0.1778,0.1827,0.1872,0.1895,0.1909,0.1975,0.197,0.1989,0.2032,0.2068,0.2078,0.2087,0.2114,0.2125,0.1996,0.1996,0.1996,0,0.148,0.151,0.1538,0.1568,0.1596,0.1633,0.1663,0.1699,0.1754,0.1787,0.1796,0.1882,0.1902,0.196,0.1989,0.1993,0.2011,0.1992,0.2078,0.2086,0.2094,0.212,0.2131,0.1999,0.1999,0.1998,0.1998,0,0.15,0.154,0.1559,0.1608,0.1641,0.1677,0.1721,0.1771,0.1816,0.1847,0.1927,0.1958,0.2009,0.2027,0.2032,0.2104,0.2097,0.208,0.2049,0.211,0.2133,0.2144,0.2004,0.2003,0.2002,0.2001,0,0,0.1483,0.1558,0.1569,0.1601,0.1667,0.1693,0.1759,0.182,0.187,0.1934,0.1996,0.206,0.2087,0.2106,0.2123,0.2159,0.2237,0.2154,0.2155,0.2175,0.2321,0.2184,0.2182,0.224,0.2242,0.2243,0.2318,0,0.1494,0.1549,0.1587,0.1649,0.168,0.174,0.1796,0.1862,0.192,0.1993,0.2046,0.2111,0.2114,0.2153,0.2193,0.2228,0.2267,0.2219,0.2265,0.2266,0.2131,0.219,0.225,0.2325,0.2328,0.2329,0.233,0,0.1493,0.1534,0.1591,0.1673,0.1695,0.1743,0.1838,0.1894,0.1996,0.2047,0.2122,0.2163,0.2247,0.223,0.2323,0.2297,0.232,0.2336,0.2339,0.2194,0.2147,0.2251,0.2349,0.2347,0.2346,0.2345,0.2344,0,0.1451,0.1535,0.1582,0.161,0.1707,0.1758,0.1819,0.1917,0.1969,0.209,0.2141,0.2234,0.2296,0.2341,0.2391,0.2371,0.2475,0.2443,0.2338,0.2329,0.2404,0.2393,0.2501,0.2501,0.2501,0.2501,0.2501,0,0.1428,0.1472,0.1575,0.1601,0.1669,0.1748,0.1828,0.1905,0.2008,0.2072,0.2171,0.2227,0.233,0.2397,0.2421,0.2415,0.2504,0.2354,0.234,0.2428,0.242,0.2411,0.24,0.2503,0.2503,0.2502,0.2502,0,0.137,0.1438,0.1499,0.1611,0.1651,0.1703,0.1823,0.1874,0.1989,0.2074,0.2119,0.2251,0.234,0.2414,0.25,0.2439,0.2453,0.2428,0.2532,0.2522,0.2276,0.2267,0.2306,0.2302,0.2299,0.2296,0.2293,0,0.1342,0.1369,0.149,0.1528,0.1585,0.1673,0.173,0.1854,0.19,0.2069,0.2096,0.2232,0.2307,0.2312,0.2405,0.2437,0.241,0.2395,0.2315,0.2273,0.2257,0.2254,0.225,0.2288,0.2287,0.2286,0.2285,0,0.1285,0.1342,0.1392,0.1471,0.1539,0.1596,0.1686,0.1703,0.1846,0.1965,0.2021,0.2072,0.2167,0.2228,0.2273,0.229,0.2388,0.2357,0.2363,0.2288,0.2251,0.2238,0.2238,0.2272,0.2274,0.2275,0.2276,0,0.1247,0.1265,0.134,0.1395,0.1474,0.15,0.1555,0.1612,0.1671,0.1844,0.1867,0.2015,0.2146,0.2154,0.2199,0.2204,0.2164,0.208,0.21,0.2114,0.2017,0.194,0.1862,0,0,0,0,0,0.1196,0.1205,0.1256,0.1308,0.138,0.1425,0.1518,0.1573,0.1704,0.1695,0.1769,0.1848,0.1915,0.1994,0.1962,0.2126,0.218,0.2079,0.2093,0.2204,0.2218,0.2122,0,0,0,0,0,0,0.1162,0.1207,0.1222,0.1223,0.1242,0.1305,0.1359,0.1447,0.1439,0.1582,0.1626,0.1738,0.1831,0.1918,0.1928,0.1953,0.1923,0.2172,0.2167,0.2196,0.2209,0.222,0.2126,0,0,0,0,0]},{"header":{"parameterUnit":"m.s-1","parameterCategory":2,"la1":30.2991,"la2":30.254,"lo1":-89.0895,"lo2":-89.0444,"dy":0.0017,"dx":0.0017,"nx":28,"ny":28,"refTime":"2024-08-29T21:00:00:Z","depth":"4","parameterNumber":3,"parameterNumberName":"V-component_of_CURRENTS"},"data":[0,0,0,0,0,0,0,0,0,0,0,0,0,0,0,0,0,0,0,0,0,0,0,0,0,0,0,0,0,0,0,0,0,0,0,0,0,0,0,0,0,0,0,0,0,0,0,0,0,0,0,0,0,0,0,0,0,0,-0.0105,-0.0106,0,-0.0155,-0.0155,-0.0156,-0.0196,-0.0196,-0.0196,-0.0197,-0.0274,-0.0276,-0.0278,0,0,0,0,0,0,0,0,0,0,0,0,0,-0.007,-0.007,-0.0105,-0.0106,-0.0106,-0.0155,-0.0155,-0.0156,-0.0196,-0.0196,-0.0197,-0.0197,-0.0274,-0.0276,-0.0278,0,0,0,0,0,0,0,0,0,0,0,0,0,-0.0099,-0.007,-0.0105,-0.0131,-0.0134,-0.0155,-0.0156,-0.0156,-0.0196,-0.0196,-0.0197,-0.0197,-0.0273,-0.0276,-0.0278,-0.0284,0,0,-0.0286,-0.0288,0,0,0,0,0,0,0,0,-0.0098,-0.0101,-0.0127,-0.0129,-0.0133,-0.0169,-0.0172,-0.02,-0.0195,-0.0173,-0.0197,-0.0197,-0.0241,-0.0246,-0.0255,-0.0288,-0.0291,-0.0287,-0.0288,-0.0289,-0.029,0,0,0,0,0,0,0,-0.0096,-0.0099,-0.0125,-0.0127,-0.0131,-0.015,-0.0154,-0.0177,-0.0204,-0.0175,-0.0178,-0.0182,-0.0243,-0.0252,-0.0257,-0.0292,-0.0287,-0.0289,-0.029,-0.0292,-0.0343,-0.0342,0,0,0,0,0,0,-0.0086,-0.0097,-0.0124,-0.0127,-0.0115,-0.015,-0.0155,-0.0157,-0.0204,-0.0211,-0.0182,-0.0184,-0.0248,-0.0254,-0.026,-0.0268,-0.0289,-0.0292,-0.0293,-0.0343,-0.0343,-0.0342,0,0,0,0,0,0,-0.0085,-0.0088,-0.0122,-0.0113,-0.0118,-0.0149,-0.0152,-0.0158,-0.0169,-0.0208,-0.0216,-0.0187,-0.0248,-0.0256,-0.0279,-0.0272,-0.0293,-0.0295,-0.0343,-0.0343,-0.0342,-0.0286,0,0,0,0,0,0,-0.0084,-0.0087,-0.0086,-0.0112,-0.0118,-0.0129,-0.0152,-0.0159,-0.0171,-0.0174,-0.0216,-0.0223,-0.0249,-0.0275,-0.0282,-0.0276,-0.0297,-0.0343,-0.0343,-0.0343,-0.0288,-0.0284,-0.028,0,0,0,0,0,-0.0083,-0.0077,-0.0085,-0.0089,-0.0115,-0.0129,-0.0134,-0.0158,-0.0171,-0.0171,-0.02,-0.0222,-0.0278,-0.0277,-0.0285,-0.028,-0.0344,-0.0343,-0.0343,-0.029,-0.0285,-0.028,0,0,0,0,0,0,-0.006,-0.0081,-0.0091,-0.0092,-0.0107,-0.0135,-0.0138,-0.0155,-0.0178,-0.0182,-0.022,-0.0229,-0.0248,-0.0271,-0.027,-0.0294,-0.0314,-0.0315,-0.0271,-0.0267,-0.0263,-0.0244,-0.03,0,0,0,0,0,-0.0054,-0.0055,-0.0077,-0.0077,-0.0083,-0.0109,-0.0118,-0.0134,-0.0158,-0.0168,-0.0197,-0.0227,-0.0251,-0.0264,-0.0291,-0.0302,-0.0325,-0.0304,-0.03,-0.0296,-0.0287,-0.0317,-0.0315,-0.0341,-0.0341,-0.0341,0,0,-0.0045,-0.0056,-0.0057,-0.0072,-0.0086,-0.0087,-0.0116,-0.0125,-0.0125,-0.0173,-0.0182,-0.0215,-0.0252,-0.0266,-0.0276,-0.0284,-0.0302,-0.0296,-0.0292,-0.0285,-0.0317,-0.0314,-0.0312,-0.034,-0.0341,-0.0341,0,0,-0.0024,-0.0036,-0.003,-0.0039,-0.0055,-0.0069,-0.0069,-0.0095,-0.0106,-0.012,-0.0155,-0.0179,-0.0216,-0.0238,-0.0255,-0.0244,-0.0281,-0.0256,-0.0218,-0.0248,-0.0246,-0.0244,-0.0269,-0.027,-0.0252,-0.0252,-0.0252,0,-0.0013,-0.0008,-0.003,-0.0024,-0.0025,-0.0057,-0.0047,-0.0062,-0.0091,-0.0097,-0.0116,-0.0168,-0.02,-0.0216,-0.0213,-0.0234,-0.0257,-0.0232,-0.0242,-0.0241,-0.024,-0.0266,-0.0268,-0.0249,-0.0249,-0.0249,-0.025,0,0.0011,0.0016,0.002,0.0018,0.0016,0.0018,-0.0001,-0.0008,-0.0026,-0.0045,-0.0066,-0.0111,-0.014,-0.0156,-0.0182,-0.0192,-0.0212,-0.0234,-0.0251,-0.0234,-0.0263,-0.0266,-0.0245,-0.0246,-0.0247,-0.0247,0,0,0.0034,0.0037,0.0038,0.0049,0.0039,0.0041,0.0045,0.0039,0.0043,0.0008,0.0009,-0.0037,-0.0065,-0.0085,-0.0123,-0.0147,-0.0166,-0.0183,-0.0186,-0.0201,-0.0229,-0.023,-0.0234,-0.0192,-0.0193,-0.0193,-0.0251,0,0.0059,0.0083,0.0077,0.0104,0.0116,0.0098,0.0108,0.0098,0.0079,0.0071,0.0025,0.0008,-0.0037,-0.0049,-0.0081,-0.0145,-0.0171,-0.0148,-0.0249,-0.0252,-0.0249,-0.0237,-0.0194,-0.0253,-0.0254,-0.0254,-0.0255,0,0.0083,0.0097,0.0129,0.0151,0.0156,0.0168,0.0179,0.0184,0.0162,0.0146,0.0118,0.008,0.0042,0.0,-0.0092,-0.0076,-0.0144,-0.0196,-0.02,-0.022,-0.0258,-0.0276,-0.0261,-0.026,-0.026,-0.0259,-0.0259,0,0.0109,0.0134,0.0164,0.017,0.0187,0.0202,0.0212,0.0206,0.022,0.0195,0.0195,0.0137,0.0115,0.0026,-0.0078,-0.0088,-0.0182,-0.0213,-0.0277,-0.0279,-0.0286,-0.0287,-0.0278,-0.0278,-0.0277,-0.0277,-0.0277,0,0.0134,0.0157,0.0179,0.0194,0.0235,0.0238,0.0273,0.027,0.0278,0.0302,0.0239,0.0239,0.012,0.0052,-0.0055,-0.0168,-0.0168,-0.0263,-0.0291,-0.0262,-0.0259,-0.0288,-0.0289,-0.0279,-0.0279,-0.0279,-0.0278,0,0.0151,0.0164,0.0201,0.0232,0.0247,0.0276,0.032,0.0343,0.0342,0.0373,0.0372,0.0318,0.0228,0.0105,-0.0037,-0.0127,-0.0243,-0.0287,-0.0234,-0.0259,-0.0327,-0.0324,-0.0362,-0.0363,-0.0363,-0.0363,-0.0363,0,0.016,0.0181,0.0229,0.0256,0.0272,0.0314,0.0347,0.037,0.0398,0.0422,0.0438,0.0378,0.0321,0.0133,-0.0014,-0.0211,-0.0247,-0.031,-0.0328,-0.0312,-0.0335,-0.0331,-0.0328,-0.0364,-0.0364,-0.0364,-0.0364,0,0.0176,0.0192,0.022,0.0278,0.0321,0.0373,0.0421,0.045,0.0484,0.0492,0.0502,0.0414,0.0313,0.0152,0.0001,-0.0146,-0.027,-0.0315,-0.0315,-0.0333,-0.0315,-0.0337,-0.0333,-0.0366,-0.0365,-0.0365,-0.0365,0,0.0184,0.0204,0.0242,0.0292,0.0353,0.0411,0.0438,0.0479,0.0514,0.0545,0.055,0.0447,0.0394,0.0185,0.0045,-0.0096,-0.0145,-0.0202,-0.021,-0.021,-0.0156,-0.011,-0.0112,0,0,0,0,0,0.0185,0.0203,0.0253,0.0306,0.0371,0.0404,0.0479,0.0502,0.0542,0.0562,0.0563,0.0474,0.029,0.0205,0.0065,0.0005,-0.0192,-0.0168,-0.0268,-0.0373,-0.0371,-0.0334,0,0,0,0,0,0,0.0181,0.0219,0.0243,0.031,0.0347,0.0419,0.0467,0.0501,0.0508,0.0536,0.0442,0.042,0.0233,0.0367,0.0055,0.0013,-0.0073,-0.025,-0.0254,-0.0374,-0.0372,-0.0371,-0.0333,0,0,0,0,0]}]]